[[{"header":{"parameterUnit":"m.s-1","parameterCategory":1,"la1":30.2991,"la2":30.254,"lo1":-89.0895,"lo2":-89.0444,"dy":0.0017,"dx":0.0017,"nx":28,"ny":28,"refTime":"2026-02-08T03:00:00:Z","depth":0,"parameterNumber":2,"parameterNumberName":"U-component_of_WINDS"},"data":[0,0,0,0,0,0,0,0,0,0,0,0,0,0,0,0,0,0,0,0,0,0,0,0,0,0,0,0,0,0,0,0,0,0,0,0,0,0,0,0,0,0,0,0,0,0,0,0,0,0,0,0,0,0,0,0,0,0,1.3294,1.3295,0,1.3344,1.3344,1.3345,1.3294,1.3292,1.329,1.3288,1.3345,1.3348,1.3351,0,0,0,0,0,0,0,0,0,0,0,0,0,1.3162,1.3165,1.3294,1.3295,1.3295,1.3344,1.3344,1.3345,1.3294,1.3292,1.3289,1.3287,1.3343,1.3347,1.3351,0,0,0,0,0,0,0,0,0,0,0,0,0,1.3217,1.3166,1.3294,1.3276,1.3274,1.3343,1.3344,1.3345,1.3295,1.3292,1.3289,1.3286,1.3342,1.3347,1.3352,1.3443,0,0,1.3367,1.337,0,0,0,0,0,0,0,0,1.3214,1.3222,1.3278,1.3277,1.3276,1.3309,1.3318,1.3378,1.3296,1.3287,1.3288,1.3285,1.3336,1.3341,1.3357,1.3446,1.3448,1.3368,1.3371,1.3373,1.3375,0,0,0,0,0,0,0,1.321,1.3219,1.3314,1.3279,1.3278,1.3267,1.3272,1.333,1.3328,1.3288,1.3284,1.3291,1.3335,1.3352,1.3358,1.3449,1.3368,1.3372,1.3375,1.3377,1.3618,1.3621,0,0,0,0,0,0,1.3207,1.3216,1.3312,1.3315,1.3237,1.3272,1.3277,1.3302,1.3327,1.3328,1.3293,1.3288,1.3345,1.3352,1.336,1.347,1.3373,1.3378,1.3381,1.3615,1.3619,1.3623,0,0,0,0,0,0,1.3205,1.3216,1.331,1.3265,1.3276,1.3278,1.3306,1.3304,1.3322,1.3331,1.3331,1.3311,1.3343,1.3353,1.3423,1.3471,1.338,1.3385,1.3611,1.3616,1.3621,1.3689,0,0,0,0,0,0,1.3201,1.3216,1.3248,1.3266,1.3279,1.3371,1.3309,1.3308,1.333,1.3324,1.3348,1.3349,1.3342,1.3416,1.3428,1.3476,1.3389,1.3607,1.3613,1.3619,1.3683,1.3696,1.3708,0,0,0,0,0,1.3197,1.3266,1.325,1.3262,1.3319,1.3373,1.3381,1.3369,1.3334,1.3368,1.3375,1.3348,1.3464,1.3423,1.3437,1.3487,1.3604,1.3611,1.3619,1.3677,1.3694,1.3707,0,0,0,0,0,0,1.3255,1.3268,1.325,1.3327,1.335,1.3364,1.3407,1.3386,1.342,1.3413,1.3399,1.3405,1.348,1.3491,1.3446,1.3578,1.3528,1.3539,1.3568,1.3584,1.3596,1.3592,1.3393,0,0,0,0,0,1.3277,1.3318,1.3328,1.3395,1.3407,1.3405,1.3428,1.3418,1.3441,1.345,1.3462,1.3487,1.3529,1.3557,1.3596,1.3685,1.369,1.3726,1.3739,1.3749,1.3758,1.3808,1.3825,1.3648,1.3648,1.3647,0,0,1.3323,1.3335,1.3361,1.3407,1.3423,1.3468,1.3413,1.3463,1.3497,1.3458,1.3525,1.3535,1.3562,1.3643,1.3679,1.3654,1.3809,1.3758,1.3766,1.377,1.3818,1.3835,1.3849,1.3653,1.3652,1.3651,0,0,1.3429,1.3441,1.3499,1.3517,1.3541,1.354,1.3554,1.3573,1.3578,1.3644,1.3617,1.3659,1.3731,1.3753,1.3773,1.3891,1.3868,1.3904,1.3969,1.4018,1.4032,1.4044,1.4087,1.4103,1.3914,1.3914,1.3914,0,1.3482,1.3547,1.3532,1.3584,1.3606,1.3573,1.3633,1.3651,1.3689,1.3706,1.3677,1.3769,1.3785,1.3871,1.39,1.3917,1.3935,1.3901,1.403,1.4043,1.4054,1.4095,1.4112,1.3918,1.3917,1.3917,1.3917,0,1.3613,1.3659,1.3703,1.3739,1.3766,1.3822,1.3818,1.3848,1.3836,1.3839,1.391,1.3928,1.3971,1.3991,1.398,1.4077,1.4061,1.4032,1.3981,1.4075,1.4114,1.413,1.3924,1.3922,1.3921,1.392,0,0,1.3755,1.3783,1.38,1.3817,1.3843,1.3879,1.3936,1.3977,1.4003,1.4031,1.4079,1.4143,1.4117,1.414,1.4132,1.4175,1.4269,1.4141,1.4141,1.4165,1.4379,1.4401,1.4419,1.4255,1.4258,1.426,1.4377,0,1.3863,1.3957,1.3948,1.4039,1.4083,1.4053,1.4103,1.4126,1.4131,1.4171,1.4177,1.4223,1.4184,1.4199,1.424,1.4249,1.4312,1.424,1.4302,1.4304,1.4296,1.4439,1.4462,1.4572,1.4392,1.4395,1.4397,0,1.4,1.4032,1.4127,1.4149,1.4167,1.4211,1.425,1.4287,1.4314,1.4315,1.4343,1.4328,1.4387,1.4336,1.4419,1.4371,1.4396,1.4405,1.4409,1.4414,1.4356,1.445,1.4606,1.4623,1.442,1.4418,1.4417,0,1.4096,1.4163,1.4229,1.4244,1.4271,1.4303,1.4316,1.434,1.4366,1.4401,1.4418,1.446,1.4483,1.4517,1.4515,1.4478,1.4601,1.4549,1.4605,1.4606,1.4632,1.4631,1.4795,1.4648,1.4648,1.4647,1.4647,0,1.4216,1.4276,1.4272,1.4313,1.4381,1.437,1.4438,1.4448,1.447,1.4514,1.4493,1.4535,1.453,1.4574,1.4573,1.4643,1.4654,1.4658,1.4657,1.466,1.466,1.4676,1.4669,1.4652,1.4651,1.465,1.4649,0,1.4334,1.4333,1.4404,1.4424,1.4431,1.448,1.4498,1.4539,1.4543,1.4599,1.4612,1.462,1.467,1.4672,1.473,1.473,1.4816,1.4807,1.4807,1.4805,1.4862,1.4857,1.5043,1.5068,1.4904,1.4906,1.4907,0,1.4411,1.4456,1.4482,1.4509,1.4524,1.4569,1.4595,1.4589,1.4618,1.4654,1.4691,1.4739,1.4777,1.486,1.4872,1.4917,1.4909,1.4972,1.4916,1.4918,1.4911,1.4909,1.4914,1.4982,1.4984,1.4986,1.4987,0,1.4548,1.4547,1.4585,1.4625,1.4657,1.4688,1.4717,1.4742,1.4739,1.4773,1.4824,1.4854,1.4914,1.4963,1.5008,1.5024,1.5006,1.5005,1.502,1.5024,1.5022,1.5025,1.4837,1.5,1.4999,1.4998,1.4997,1.4997,1.4649,1.4688,1.4713,1.4758,1.4779,1.4807,1.4846,1.4856,1.4897,1.4945,1.4939,1.4996,1.5026,1.5083,1.5104,1.515,1.5129,1.5151,1.5157,1.5163,1.5169,1.5015,1.5158,1.5158,1.5157,1.5157,1.5157,0,1.4785,1.48,1.4842,1.4883,1.4919,1.4898,1.493,1.4962,1.5012,1.504,1.5078,1.5138,1.5187,1.5204,1.5251,1.5286,1.5279,1.5299,1.5296,1.53,1.5185,1.5167,1.5303,1.5303,1.5303,1.5303,1.5303,1.5303,1.4861,1.4928,1.493,1.5008,1.5023,1.5078,1.5098,1.5125,1.5148,1.5215,1.5255,1.5265,1.529,1.534,1.5384,1.5388,1.5407,1.5431,1.5431,1.5323,1.5308,1.5294,1.5277,1.5435,1.5435,1.5543,1.5544,1.5545]},{"header":{"parameterUnit":"m.s-1","parameterCategory":1,"la1":30.2991,"la2":30.254,"lo1":-89.0895,"lo2":-89.0444,"dy":0.0017,"dx":0.0017,"nx":28,"ny":28,"refTime":"2026-02-08T03:00:00:Z","depth":0,"parameterNumber":3,"parameterNumberName":"V-component_of_WINDS"},"data":[0,0,0,0,0,0,0,0,0,0,0,0,0,0,0,0,0,0,0,0,0,0,0,0,0,0,0,0,0,0,0,0,0,0,0,0,0,0,0,0,0,0,0,0,0,0,0,0,0,0,0,0,0,0,0,0,0,0,1.2085,1.2086,0,1.2154,1.2154,1.2155,1.2179,1.2179,1.2179,1.2178,1.2247,1.2249,1.2251,0,0,0,0,0,0,0,0,0,0,0,0,0,1.1972,1.1974,1.2085,1.2086,1.2087,1.2154,1.2154,1.2155,1.2179,1.2179,1.2179,1.2178,1.2246,1.2249,1.2251,0,0,0,0,0,0,0,0,0,0,0,0,0,1.2029,1.1974,1.2085,1.2107,1.2109,1.2153,1.2155,1.2156,1.2179,1.2179,1.2179,1.2178,1.2246,1.2249,1.2252,1.2278,0,0,1.2261,1.2262,0,0,0,0,0,0,0,0,1.2025,1.2033,1.2102,1.2105,1.2108,1.2158,1.214,1.2197,1.2179,1.2153,1.2178,1.2178,1.2217,1.2223,1.2237,1.2282,1.2285,1.2261,1.2263,1.2265,1.2265,0,0,0,0,0,0,0,1.2021,1.203,1.2112,1.2103,1.2107,1.2112,1.212,1.2151,1.2186,1.2155,1.2157,1.2165,1.2219,1.2233,1.2238,1.2286,1.2261,1.2264,1.2266,1.2267,1.2355,1.2356,0,0,0,0,0,0,1.2014,1.2026,1.211,1.2114,1.2065,1.2115,1.2123,1.2142,1.2186,1.2192,1.2165,1.2166,1.2228,1.2235,1.2241,1.2275,1.2265,1.2267,1.2269,1.2355,1.2355,1.2356,0,0,0,0,0,0,1.2012,1.2021,1.2107,1.2071,1.2082,1.2117,1.2138,1.2144,1.2158,1.2194,1.22,1.2174,1.2228,1.2236,1.2269,1.2277,1.2269,1.2272,1.2354,1.2355,1.2356,1.2343,0,0,0,0,0,0,1.2008,1.202,1.2031,1.2071,1.2084,1.2135,1.2139,1.2145,1.2164,1.2165,1.2203,1.2209,1.2229,1.2264,1.2272,1.2281,1.2274,1.2354,1.2354,1.2355,1.2343,1.2343,1.2343,0,0,0,0,0,1.2004,1.2025,1.2032,1.2042,1.2099,1.2135,1.2143,1.2165,1.2164,1.2175,1.2198,1.2208,1.2275,1.2267,1.2276,1.2287,1.2353,1.2354,1.2355,1.2342,1.2343,1.2343,0,0,0,0,0,0,1.1985,1.203,1.2039,1.2073,1.21,1.2139,1.2154,1.2165,1.2192,1.2192,1.2218,1.2227,1.2257,1.2275,1.2265,1.2315,1.2315,1.2317,1.2302,1.2302,1.2303,1.2298,1.2277,0,0,0,0,0,1.1985,1.2011,1.2049,1.2076,1.2089,1.2119,1.2136,1.2151,1.2179,1.2191,1.2216,1.2243,1.227,1.2287,1.2314,1.2345,1.2353,1.2357,1.2357,1.2357,1.2359,1.2376,1.2378,1.2359,1.2359,1.2359,0,0,1.1985,1.2013,1.2028,1.2073,1.2095,1.2121,1.2128,1.2156,1.2175,1.2195,1.2227,1.2246,1.2278,1.2309,1.2325,1.2326,1.2366,1.2359,1.2358,1.2361,1.2378,1.238,1.2381,1.236,1.236,1.236,0,0,1.1998,1.2022,1.2046,1.2069,1.2103,1.2123,1.2129,1.2166,1.218,1.2213,1.2228,1.225,1.2297,1.2319,1.2336,1.2356,1.2366,1.2364,1.2366,1.2382,1.2383,1.2385,1.2392,1.2394,1.2366,1.2366,1.2366,0,1.1993,1.2033,1.2057,1.2084,1.2103,1.2122,1.2147,1.2167,1.2208,1.222,1.2221,1.2279,1.2302,1.2338,1.2343,1.2357,1.2363,1.236,1.2381,1.2383,1.2385,1.2392,1.2394,1.2365,1.2365,1.2366,1.2366,0,1.2025,1.2053,1.2069,1.2108,1.2129,1.2154,1.2181,1.2199,1.2212,1.2231,1.2264,1.2292,1.2324,1.2334,1.2347,1.2372,1.2372,1.2377,1.2377,1.2386,1.2392,1.2395,1.2365,1.2365,1.2365,1.2365,0,0,1.2029,1.2081,1.2086,1.2104,1.2143,1.2165,1.219,1.2223,1.2237,1.2265,1.2286,1.2325,1.2329,1.2349,1.2364,1.2378,1.2392,1.2381,1.2382,1.2382,1.2421,1.2417,1.242,1.2398,1.2399,1.2399,1.2418,0,1.2047,1.2094,1.2116,1.2154,1.2179,1.2197,1.222,1.2245,1.2264,1.2287,1.2308,1.2334,1.2338,1.235,1.2365,1.2387,1.24,1.2386,1.2418,1.2419,1.241,1.2423,1.2419,1.2436,1.2421,1.2421,1.2422,0,1.2074,1.2102,1.2142,1.2177,1.2189,1.2209,1.224,1.2262,1.2291,1.2304,1.2325,1.234,1.2366,1.2365,1.2401,1.2391,1.2406,1.2418,1.2419,1.2423,1.2421,1.2427,1.2441,1.2444,1.2426,1.2426,1.2425,0,1.2072,1.2119,1.2149,1.2164,1.2206,1.222,1.2238,1.2267,1.2284,1.2311,1.2323,1.2352,1.2368,1.239,1.2412,1.2409,1.2446,1.2446,1.2456,1.2456,1.2463,1.2463,1.248,1.2473,1.2473,1.2473,1.2473,0,1.2089,1.2113,1.2149,1.2167,1.2194,1.2219,1.2244,1.2263,1.2289,1.2311,1.2328,1.2348,1.2375,1.2398,1.2415,1.2443,1.245,1.246,1.2464,1.2458,1.2457,1.2468,1.2467,1.2473,1.2473,1.2473,1.2473,0,1.2092,1.2117,1.2151,1.2188,1.2198,1.2216,1.2247,1.2265,1.2284,1.2311,1.2319,1.2349,1.2377,1.2401,1.2437,1.2449,1.2477,1.2482,1.2467,1.247,1.2478,1.2477,1.2503,1.2508,1.2497,1.2497,1.2497,0,1.2101,1.212,1.2159,1.2175,1.2193,1.2219,1.2237,1.2262,1.228,1.2314,1.2328,1.2357,1.2382,1.2426,1.245,1.2478,1.2484,1.2491,1.2488,1.2481,1.2483,1.2482,1.2484,1.2491,1.2491,1.2491,1.2491,0,1.2115,1.2127,1.2153,1.2183,1.2205,1.223,1.2255,1.2267,1.2296,1.2315,1.2344,1.2363,1.2401,1.243,1.246,1.2478,1.2489,1.2492,1.2496,1.249,1.248,1.2485,1.2468,1.2491,1.2491,1.2491,1.2491,1.2491,1.2122,1.2139,1.2169,1.2197,1.2219,1.2242,1.2261,1.2282,1.2307,1.234,1.2352,1.2382,1.241,1.2452,1.247,1.2492,1.2494,1.25,1.2501,1.2502,1.2501,1.2477,1.2498,1.2498,1.2498,1.2498,1.2498,0,1.2136,1.2157,1.2182,1.2217,1.2239,1.2249,1.2277,1.2294,1.232,1.2346,1.237,1.2403,1.243,1.2457,1.2485,1.2499,1.2504,1.2505,1.2504,1.2508,1.2498,1.2492,1.25,1.25,1.25,1.25,1.25,1.25,1.2147,1.2176,1.2191,1.2231,1.2251,1.2281,1.2296,1.2317,1.2337,1.2373,1.2397,1.2414,1.2439,1.247,1.2495,1.2502,1.2512,1.2511,1.252,1.251,1.2509,1.2509,1.2503,1.2513,1.2513,1.2528,1.2528,1.2528]}]]